Date String (YYYY-MM-DD hh:mm:ss) UTC,Instrument flags,absolute air pressure of the measurement (hPa),sample flow rate (lpm),inlet stack bypass flow (lpm),air temperature of the measurement (°C),ambient temperature measured by the external sensor (°C),aerosol sample conditioner tube jacket temperature (°C),OPC LED temperature (°C),internal box temperature (°C),relative humidity of the measurement (%),span deviation,mass concentration of particles derived from Lorenz-Mie calculation of OPC scattering (μg/m³),mass concentration of particles derived from Lorenz-Mie calculation of OPC scattering (μg/m³),mass concentration of particles derived from Lorenz-Mie calculation of OPC scattering (μg/m³)
DateTimeUTC,F1_M11,P_M11,Q1_M11,Q2_M11,T1_M11,T2_M11,T3_M11,T4_M11,T5_M11,U1_M11,ZSPAN_M11,X0_M11,X2_M11,X1_M11
2023-10-13 16:00:00,SystemResetWarning,0832.8,5.00,000.00,024.4,023.1,000.0,032.7,026.2,15.7,0000.0,0002.50,0001.76,0001.56
2023-10-13 16:01:00,SystemResetWarning,0832.7,5.00,000.00,024.4,023.1,000.0,032.8,026.2,15.7,0000.0,0002.60,0001.80,0001.56
2023-10-13 16:02:00,SystemResetWarning,0832.8,5.00,000.00,024.4,023.1,000.0,032.8,026.2,15.8,0000.0,0002.72,0001.80,0001.56
2023-10-13 16:03:00,SystemResetWarning,0832.8,5.00,000.00,024.4,023.1,000.0,032.8,026.2,15.9,0000.0,0002.95,0001.80,0001.57
2023-10-13 16:04:00,SystemResetWarning,0832.8,5.00,000.00,024.4,023.2,000.0,032.8,026.2,15.9,0000.0,0002.98,0001.84,0001.60
2023-10-13 16:05:00,SystemResetWarning,0832.9,5.00,000.00,024.5,023.2,000.0,032.8,026.2,15.9,0000.0,0003.08,0001.96,0001.69
2023-10-13 16:06:00,SystemResetWarning,0833.2,5.00,000.00,024.5,023.2,000.0,032.9,026.3,15.5,0000.0,0003.28,0002.07,0001.77
2023-10-13 16:07:00,SystemResetWarning,0832.8,5.01,000.00,024.5,023.2,000.0,032.8,026.3,15.5,0000.0,0003.34,0002.12,0001.81
2023-10-13 16:08:00,SystemResetWarning,0833.1,5.01,000.00,024.5,023.3,000.0,032.9,026.3,15.6,0000.0,0003.40,0002.15,0001.83
2023-10-13 16:09:00,SystemResetWarning,0832.9,5.00,000.00,024.5,023.3,000.0,032.9,026.3,15.5,0000.0,0003.46,0002.19,0001.86
2023-10-13 16:10:00,SystemResetWarning,0832.8,5.00,000.00,024.5,023.3,000.0,032.9,026.3,15.4,0000.0,0004.10,0002.25,0001.88
2023-10-13 16:11:00,SystemResetWarning,0832.8,5.00,000.00,024.5,023.3,000.0,032.9,026.3,15.5,0000.0,0005.72,0002.28,0001.91
2023-10-13 16:12:00,SystemResetWarning,0833.0,5.00,000.00,024.6,023.3,000.0,032.9,026.3,15.3,0000.0,0006.20,0002.30,0001.94
2023-10-13 16:13:00,SystemResetWarning,0832.8,5.00,000.00,024.6,023.3,000.0,032.9,026.4,15.0,0000.0,0006.23,0002.35,0002.00
2023-10-13 16:14:00,SystemResetWarning,0832.8,5.00,000.00,024.6,023.3,000.0,032.9,026.3,14.9,0000.0,0005.98,0002.44,0002.09
2023-10-13 16:15:00,SystemResetWarning,0832.8,4.99,000.00,024.6,023.3,000.0,032.9,026.3,14.9,0000.0,0006.09,0002.55,0002.17
2023-10-13 16:16:00,SystemResetWarning,0832.8,5.00,000.00,024.6,023.3,000.0,032.9,026.3,14.9,0000.0,0006.04,0002.53,0002.18
2023-10-13 16:17:00,SystemResetWarning,0832.8,5.00,000.00,024.6,023.3,000.0,032.9,026.3,15.0,0000.0,0005.99,0002.51,0002.15
2023-10-13 16:18:00,SystemResetWarning,0832.8,5.00,000.00,024.6,023.3,000.0,032.9,026.3,14.9,0000.0,0006.02,0002.52,0002.14
2023-10-13 16:19:00,SystemResetWarning,0832.8,5.00,000.00,024.6,023.3,000.0,033.0,026.3,15.0,0000.0,0006.16,0002.58,0002.16
2023-10-13 16:20:00,SystemResetWarning,0832.8,5.00,000.00,024.6,023.3,000.0,033.0,026.4,15.0,0000.0,0006.19,0002.59,0002.18
2023-10-13 16:21:00,SystemResetWarning,0832.8,5.00,000.00,024.6,023.4,000.0,033.0,026.4,15.2,0000.0,0006.19,0002.61,0002.20
2023-10-13 16:22:00,SystemResetWarning,0832.8,5.00,000.00,024.7,023.4,000.0,033.0,026.4,15.1,0000.0,0004.28,0002.58,0002.21
2023-10-13 16:23:00,SystemResetWarning,0832.8,5.00,000.00,024.7,023.4,000.0,033.0,026.4,14.8,0000.0,0003.53,0002.56,0002.22
2023-10-13 16:24:00,SystemResetWarning,0832.8,5.00,000.00,024.7,023.5,000.0,033.0,026.5,14.8,0000.0,0003.43,0002.57,0002.24
2023-10-13 16:25:00,SystemResetWarning,0832.8,5.00,000.00,024.7,023.5,000.0,033.0,026.5,14.8,0000.0,0003.56,0002.61,0002.23
2023-10-13 16:26:00,SystemResetWarning,0832.8,5.00,000.00,024.7,023.5,000.0,033.1,026.5,14.8,0000.0,0003.60,0002.55,0002.19
2023-10-13 16:27:00,SystemResetWarning,0832.8,5.00,000.00,024.7,023.5,000.0,033.1,026.5,14.4,0000.0,0003.77,0002.57,0002.17
2023-10-13 16:28:00,SystemResetWarning,0832.8,5.00,000.00,024.7,023.5,000.0,033.1,026.5,14.3,0000.0,0003.76,0002.56,0002.17
2023-10-13 16:29:00,SystemResetWarning,0832.8,5.00,000.00,024.7,023.5,000.0,033.1,026.5,14.2,0000.0,0003.63,0002.53,0002.17
2023-10-13 16:30:00,SystemResetWarning,0832.8,5.00,000.00,024.8,023.5,000.0,033.1,026.5,14.3,0000.0,0003.51,0002.51,0002.19
2023-10-13 16:31:00,SystemResetWarning,0832.8,5.00,000.00,024.8,023.6,000.0,033.1,026.6,14.4,0000.0,0003.50,0002.52,0002.20
2023-10-13 16:32:00,SystemResetWarning,0832.8,5.00,000.00,024.8,023.6,000.0,033.1,026.6,14.6,0000.0,0003.53,0002.55,0002.23
2023-10-13 16:33:00,SystemResetWarning,0832.8,5.00,000.00,024.8,023.6,000.0,033.1,026.6,14.6,0000.0,0003.54,0002.55,0002.24
2023-10-13 16:34:00,SystemResetWarning,0832.8,5.01,000.00,024.8,023.6,000.0,033.1,026.6,14.4,0000.0,0003.63,0002.57,0002.26
2023-10-13 16:35:00,SystemResetWarning,0832.8,5.00,000.00,024.8,023.6,000.0,033.2,026.6,14.5,0000.0,0003.79,0002.63,0002.25
2023-10-13 16:36:00,SystemResetWarning,0832.8,5.00,000.00,024.9,023.7,000.0,033.2,026.6,14.6,0000.0,0003.92,0002.66,0002.27
2023-10-13 16:37:00,SystemResetWarning,0832.9,4.99,000.00,024.9,023.7,000.0,033.2,026.6,14.1,0000.0,0003.90,0002.68,0002.29
2023-10-13 16:38:00,SystemResetWarning,0832.7,5.00,000.00,024.9,023.7,000.0,033.2,026.7,13.8,0000.0,0003.74,0002.67,0002.31
2023-10-13 16:39:00,SystemResetWarning,0832.8,5.00,000.00,024.9,023.7,000.0,033.2,026.7,14.1,0000.0,0003.97,0002.73,0002.34
2023-10-13 16:40:00,SystemResetWarning,0832.8,5.00,000.00,024.9,023.7,000.0,033.2,026.6,13.9,0000.0,0004.12,0002.78,0002.37
2023-10-13 16:41:00,SystemResetWarning,0832.8,5.00,000.00,024.9,023.7,000.0,033.2,026.7,13.9,0000.0,0004.56,0002.89,0002.39
2023-10-13 16:42:00,SystemResetWarning,0833.2,4.99,000.00,024.9,023.7,000.0,033.2,026.7,14.2,0000.0,0004.68,0002.90,0002.40
2023-10-13 16:43:00,SystemResetWarning,0833.1,4.99,000.00,024.9,023.7,000.0,033.2,026.7,13.8,0000.0,0004.70,0002.90,0002.40
2023-10-13 16:44:00,SystemResetWarning,0833.3,4.99,000.00,025.0,023.7,000.0,033.3,026.7,13.8,0000.0,0004.75,0002.93,0002.42
2023-10-13 16:45:00,SystemResetWarning,0833.2,5.00,000.00,025.0,023.7,000.0,033.3,026.7,13.8,0000.0,0005.11,0002.96,0002.42
2023-10-13 16:46:00,SystemResetWarning,0833.1,5.00,000.00,025.0,023.7,000.0,033.3,026.7,14.0,0000.0,0006.14,0002.94,0002.44
2023-10-13 16:47:00,SystemResetWarning,0833.1,5.00,000.00,025.0,023.7,000.0,033.3,026.7,13.9,0000.0,0005.91,0002.88,0002.44
2023-10-13 16:48:00,SystemResetWarning,0833.4,5.00,000.00,025.0,023.7,000.0,033.3,026.7,13.9,0000.0,0005.83,0002.85,0002.42
2023-10-13 16:49:00,SystemResetWarning,0833.4,5.02,000.00,025.0,023.8,000.0,033.3,026.8,14.2,0000.0,0005.81,0002.83,0002.40
2023-10-13 16:50:00,SystemResetWarning,0833.2,5.00,000.00,025.0,023.8,000.0,033.4,026.8,14.3,0000.0,0005.66,0002.77,0002.36
2023-10-13 16:51:00,SystemResetWarning,0833.3,5.00,000.00,025.0,023.8,000.0,033.4,026.8,14.1,0000.0,0005.55,0002.75,0002.35
2023-10-13 16:52:00,SystemResetWarning,0833.2,5.00,000.00,025.1,023.8,000.0,033.4,026.8,14.2,0000.0,0005.13,0002.65,0002.35
2023-10-13 16:53:00,SystemResetWarning,0833.3,5.00,000.00,025.1,023.8,000.0,033.4,026.8,14.3,0000.0,0004.91,0002.62,0002.34
2023-10-13 16:54:00,SystemResetWarning,0833.1,5.00,000.00,025.1,023.8,000.0,033.4,026.8,14.0,0000.0,0004.85,0002.59,0002.32
2023-10-13 16:55:00,SystemResetWarning,0833.3,4.99,000.00,025.1,023.9,000.0,033.4,026.8,14.0,0000.0,0005.09,0002.62,0002.29
2023-10-13 16:56:00,SystemResetWarning,0833.2,4.99,000.00,025.1,023.9,000.0,033.4,026.8,13.9,0000.0,0005.24,0002.62,0002.28
2023-10-13 16:57:00,SystemResetWarning,0833.3,5.00,000.00,025.1,023.9,000.0,033.4,026.9,14.0,0000.0,0004.10,0002.62,0002.26
2023-10-13 16:58:00,SystemResetWarning,0833.2,5.01,000.00,025.1,023.9,000.0,033.5,026.9,14.0,0000.0,0004.14,0002.62,0002.22
2023-10-13 16:59:00,SystemResetWarning,0833.2,5.00,000.00,025.1,023.9,000.0,033.5,026.9,13.8,0000.0,0004.13,0002.61,0002.21
